Time,TemperatureF,DewpointF,PressureIn,WindDirection,WindDirectionDegrees,WindSpeedMPH,WindSpeedGustMPH,Humidity,HourlyPrecipIn,Conditions,Clouds,dailyrainin,SoftwareType,DateUTC
2013-08-09 11:01:00,60.0,55.0,30.03,SE,141,0.0,2.0,85,-99.99,,,-99.99,,2013-08-09 18:01:00,
2013-08-09 11:11:00,60.0,55.0,30.03,SE,141,0.0,2.0,85,-99.99,,,-99.99,,2013-08-09 18:11:00,
2013-08-09 11:32:00,62.0,56.0,30.03,SE,140,2.0,3.0,82,0.00,,,-99.99,,2013-08-09 18:32:00,
2013-08-09 11:43:00,62.0,56.0,30.03,SE,140,2.0,3.0,82,0.00,,,-99.99,,2013-08-09 18:43:00,
2013-08-09 11:53:00,62.0,56.0,30.03,SE,140,2.0,3.0,82,0.00,,,-99.99,,2013-08-09 18:53:00,
2013-08-09 12:02:00,65.0,58.0,30.02,SE,135,2.0,4.0,78,0.00,,,-99.99,,2013-08-09 19:02:00,
2013-08-09 12:11:00,65.0,58.0,30.02,SE,135,2.0,4.0,78,0.00,,,-99.99,,2013-08-09 19:11:00,
2013-08-09 12:32:00,69.0,60.0,30.01,ESE,109,3.0,4.0,73,0.00,,,-99.99,,2013-08-09 19:32:00,
2013-08-09 12:43:00,69.0,60.0,30.01,ESE,109,3.0,4.0,73,0.00,,,-99.99,,2013-08-09 19:43:00,
2013-08-09 12:52:00,69.0,60.0,30.01,ESE,109,3.0,4.0,73,0.00,,,-99.99,,2013-08-09 19:52:00,
2013-08-09 13:11:00,72.0,61.0,30.01,NE,56,4.0,5.0,69,0.00,,,-99.99,,2013-08-09 20:11:00,
2013-08-09 14:12:00,77.0,62.0,30.00,ESE,117,2.0,6.0,59,0.00,,,-99.99,,2013-08-09 21:12:00,
2013-08-09 14:32:00,78.0,61.0,30.00,SE,127,1.0,4.0,56,0.00,,,-99.99,,2013-08-09 21:32:00,
2013-08-09 15:01:00,76.0,61.0,30.01,SE,130,2.0,4.0,59,0.00,,,-99.99,,2013-08-09 22:01:00,
2013-08-09 15:11:00,76.0,61.0,30.01,SE,130,2.0,4.0,59,0.00,,,-99.99,,2013-08-09 22:11:00,
2013-08-09 15:22:00,76.0,61.0,30.01,SE,130,2.0,4.0,59,0.00,,,-99.99,,2013-08-09 22:22:00,
2013-08-09 15:32:00,76.0,61.0,30.01,SE,130,2.0,4.0,59,0.00,,,-99.99,,2013-08-09 22:32:00,
2013-08-09 16:01:00,75.0,61.0,30.00,SE,131,2.0,5.0,61,0.00,,,-99.99,,2013-08-09 23:01:00,
2013-08-09 16:11:00,75.0,61.0,30.00,SE,131,2.0,5.0,61,0.00,,,-99.99,,2013-08-09 23:11:00,
2013-08-09 16:21:00,75.0,61.0,30.00,SE,131,2.0,5.0,61,0.00,,,-99.99,,2013-08-09 23:21:00,
2013-08-09 16:32:00,72.0,60.0,29.99,ESE,120,0.0,5.0,66,0.00,,,-99.99,,2013-08-09 23:32:00,
2013-08-09 16:43:00,72.0,60.0,29.99,ESE,120,0.0,5.0,66,0.00,,,-99.99,,2013-08-09 23:43:00,
2013-08-09 16:52:00,72.0,60.0,29.99,ESE,120,0.0,5.0,66,0.00,,,-99.99,,2013-08-09 23:52:00,
2013-08-09 17:01:00,71.0,59.0,29.99,SE,140,2.0,5.0,67,0.00,,,-99.99,,2013-08-10 00:01:00,
2013-08-09 17:32:00,69.0,59.0,29.99,SE,128,2.0,3.0,71,0.00,,,-99.99,,2013-08-10 00:32:00,
2013-08-09 17:43:00,69.0,59.0,29.99,SE,128,2.0,3.0,71,0.00,,,-99.99,,2013-08-10 00:43:00,
2013-08-09 17:52:00,69.0,59.0,29.99,SE,128,2.0,3.0,71,0.00,,,-99.99,,2013-08-10 00:52:00,
2013-08-09 18:01:00,68.0,59.0,30.01,SSE,163,0.0,2.0,72,0.00,,,-99.99,,2013-08-10 01:01:00,
2013-08-09 18:11:00,68.0,59.0,30.01,SSE,163,0.0,2.0,72,0.00,,,-99.99,,2013-08-10 01:11:00,
2013-08-09 18:21:00,68.0,59.0,30.01,SSE,163,0.0,2.0,72,0.00,,,-99.99,,2013-08-10 01:21:00,
2013-08-09 18:32:00,68.0,59.0,30.01,SSE,163,0.0,2.0,72,0.00,,,-99.99,,2013-08-10 01:32:00,
2013-08-09 18:42:00,68.0,59.0,30.01,SSE,163,0.0,2.0,72,0.00,,,-99.99,,2013-08-10 01:42:00,
2013-08-09 19:42:00,66.0,57.0,30.04,SSW,200,3.0,5.0,74,0.00,,,-99.99,,2013-08-10 02:42:00,
2013-08-09 19:52:00,66.0,57.0,30.04,SSW,200,3.0,5.0,74,0.00,,,-99.99,,2013-08-10 02:52:00,
2013-08-09 20:01:00,66.0,57.0,30.04,SSW,200,3.0,5.0,74,0.00,,,-99.99,,2013-08-10 03:01:00,
2013-08-09 20:11:00,66.0,57.0,30.04,SSW,200,3.0,5.0,74,0.00,,,-99.99,,2013-08-10 03:11:00,
2013-08-09 20:21:00,66.0,57.0,30.04,SSW,200,3.0,5.0,74,0.00,,,-99.99,,2013-08-10 03:21:00,
2013-08-09 20:52:00,62.0,58.0,30.03,SSW,196,0.0,1.0,88,0.04,,,-99.99,,2013-08-10 03:52:00,
2013-08-09 21:01:00,62.0,58.0,30.03,SSW,196,0.0,1.0,88,0.04,,,-99.99,,2013-08-10 04:01:00,
2013-08-09 21:12:00,62.0,58.0,30.03,SSW,196,0.0,1.0,88,0.04,,,-99.99,,2013-08-10 04:12:00,
2013-08-09 21:22:00,61.0,58.0,30.03,SSW,192,0.0,2.0,89,0.03,,,-99.99,,2013-08-10 04:22:00,
2013-08-09 21:32:00,61.0,58.0,30.03,SSW,192,0.0,2.0,89,0.03,,,-99.99,,2013-08-10 04:32:00,
2013-08-09 21:43:00,61.0,58.0,30.03,SSW,192,0.0,2.0,89,0.03,,,-99.99,,2013-08-10 04:43:00,
2013-08-09 21:53:00,61.0,58.0,30.06,SSW,205,3.0,7.0,89,0.00,,,-99.99,,2013-08-10 04:53:00,
2013-08-09 22:02:00,61.0,58.0,30.06,SSW,205,3.0,7.0,89,0.00,,,-99.99,,2013-08-10 05:02:00,
2013-08-09 22:11:00,61.0,58.0,30.06,SSW,205,3.0,7.0,89,0.00,,,-99.99,,2013-08-10 05:11:00,
2013-08-09 22:21:00,61.0,58.0,30.06,SSW,205,3.0,7.0,89,0.00,,,-99.99,,2013-08-10 05:21:00,
2013-08-09 22:32:00,60.0,57.0,30.06,SSW,203,0.0,1.0,90,0.00,,,-99.99,,2013-08-10 05:32:00,
2013-08-09 22:43:00,60.0,57.0,30.06,SSW,203,0.0,1.0,90,0.00,,,-99.99,,2013-08-10 05:43:00,
2013-08-09 23:02:00,60.0,57.0,30.06,SSW,203,0.0,1.0,90,0.00,,,-99.99,,2013-08-10 06:02:00,
2013-08-09 23:11:00,60.0,57.0,30.06,SSW,203,0.0,1.0,90,0.00,,,-99.99,,2013-08-10 06:11:00,
2013-08-09 23:22:00,60.0,57.0,30.06,SSW,203,0.0,1.0,90,0.00,,,-99.99,,2013-08-10 06:22:00,
2013-08-09 23:32:00,60.0,57.0,30.05,SSW,203,0.0,0.0,91,0.00,,,-99.99,,2013-08-10 06:32:00,
2013-08-09 23:44:00,60.0,57.0,30.05,SSW,203,0.0,0.0,91,0.00,,,-99.99,,2013-08-10 06:44:00,